EHI
0 0 0 0 0 0 0 0 0 0 0 0 0 0 0 0 0 0 0 0 0 0 0 0 1 1 1 0 0 0 0 0 0 0 0 0 1 1 1 0 0 0 0 0 0 0 0 0 0
0 0 0 0 0 0 0 0 0 0 0 0 0 0 0 0 0 0 0 0 0 0 0 0 2 6 6 3 1 0 0 0 0 0 0 0 0 0 0 0 0 0 0 0 0 0 0 0 0
0 0 0 0 0 0 0 0 0 0 0 0 0 0 0 0 0 0 0 0 0 0 0 1 9 20 21 12 6 2 0 0 0 0 0 0 0 0 0 0 0 0 0 0 0 0 0 0 0
0 0 0 0 0 0 0 0 0 0 0 0 0 0 0 0 0 0 0 0 0 0 0 2 15 35 38 25 15 6 2 0 0 0 0 0 0 0 0 0 0 0 0 0 0 0 0 0 0
0 0 0 0 0 0 0 0 0 0 0 0 0 0 0 0 0 0 0 0 0 0 0 1 11 30 37 30 19 10 4 1 0 0 0 0 0 0 0 0 0 0 0 0 0 0 0 0 0
0 0 0 0 0 0 0 0 0 0 0 0 0 0 0 0 0 0 0 0 0 0 0 0 3 12 20 20 15 9 5 2 0 0 0 0 0 0 0 0 0 0 0 0 0 0 0 0 0
0 0 0 0 0 0 0 0 0 0 0 0 0 0 0 0 0 0 0 0 0 0 0 0 0 2 5 7 6 4 3 1 0 0 0 0 0 0 0 0 0 0 0 0 0 0 0 0 0
0 0 0 0 0 0 0 0 0 0 0 0 0 0 0 0 0 0 0 0 0 0 0 0 0 0 1 1 1 1 1 0 0 0 0 0 0 0 0 0 0 0 0 0 0 0 0 0 0
0 0 0 0 0 0 0 0 0 0 0 0 0 0 0 0 0 0 0 0 0 0 0 0 0 0 0 0 0 0 0 0 0 0 0 0 0 0 0 0 0 0 0 0 0 0 0 0 0
0 0 0 0 0 0 0 0 0 0 0 0 0 0 0 0 0 0 0 0 0 0 0 0 0 0 0 0 0 0 0 0 0 0 0 0 0 0 0 0 0 0 0 0 0 0 0 0 0
0 0 0 0 0 0 0 0 0 0 0 0 0 0 0 0 0 0 0 0 0 0 0 0 0 0 0 0 0 0 0 0 0 0 0 0 0 0 0 0 0 0 0 0 0 0 0 0 0
0 0 0 0 0 0 0 0 0 0 0 0 0 0 0 0 0 0 0 0 0 0 0 0 0 0 0 0 0 0 0 0 0 0 0 0 0 0 0 0 0 0 0 0 0 0 0 0 0
0 0 0 0 0 0 0 0 0 0 0 0 0 0 0 0 0 0 0 0 0 0 0 0 0 0 0 0 0 0 0 0 0 0 0 0 0 0 0 0 0 0 0 0 0 0 0 0 0
0 0 0 0 0 0 0 0 0 0 0 0 0 0 0 0 0 0 0 0 0 0 0 0 0 0 0 0 0 0 0 0 0 0 0 0 0 0 0 0 0 0 0 0 0 0 0 0 0
0 0 0 0 0 0 0 0 0 0 0 0 0 0 0 0 0 0 0 0 0 0 0 0 0 0 0 0 0 0 0 0 0 0 0 0 0 0 0 0 0 0 0 0 0 0 0 0 0
0 0 0 0 0 0 0 0 0 0 0 0 0 0 0 0 0 0 0 0 0 0 0 0 0 0 0 0 0 0 0 0 0 0 0 0 0 0 0 0 0 0 0 0 0 0 0 0 0
0 0 0 0 0 0 0 0 0 0 0 0 0 0 0 0 0 0 0 0 0 0 0 0 0 0 0 0 0 0 0 0 0 0 0 0 0 0 0 0 0 0 0 0 0 0 0 0 0
0 0 0 0 0 0 0 0 0 0 0 0 0 0 0 0 0 0 0 0 0 0 0 0 0 0 0 0 0 0 0 0 0 0 0 0 0 0 0 0 0 0 0 0 0 0 0 0 0
0 0 0 0 0 0 0 0 0 0 0 0 0 0 0 0 0 0 0 0 0 0 0 0 0 0 0 0 0 0 0 0 0 0 0 0 0 0 0 0 0 0 0 0 0 0 0 0 0
0 0 0 0 0 0 0 0 0 0 0 0 0 0 0 0 0 0 0 0 0 0 0 0 0 0 0 0 0 0 0 0 0 0 0 0 0 0 0 0 0 0 0 0 0 0 0 0 0
0 0 0 0 0 0 0 0 0 0 0 0 0 0 0 0 0 0 0 0 0 0 0 0 0 0 0 0 0 0 0 0 0 0 0 0 0 0 0 0 0 0 0 0 0 0 0 0 0
0 0 0 0 0 0 0 0 0 0 0 0 0 0 0 0 0 0 0 0 0 0 0 0 0 0 0 0 0 0 0 0 0 0 0 0 0 0 0 0 0 0 0 0 0 0 0 0 0
0 0 0 0 0 0 0 0 0 0 0 0 0 0 0 0 0 0 0 0 0 0 0 0 0 0 0 0 0 0 0 0 0 0 0 0 0 0 0 0 0 0 0 0 0 0 0 0 0
0 0 0 0 0 0 0 0 0 0 0 0 0 0 0 0 0 0 0 0 0 0 0 0 0 0 0 0 0 0 0 0 0 0 0 0 0 0 0 0 0 0 0 0 0 0 0 0 0
0 0 0 0 0 0 0 0 0 0 0 0 0 0 0 0 0 0 0 0 0 0 0 0 0 0 0 0 0 0 0 0 0 0 0 0 0 0 0 0 0 0 0 0 0 0 0 0 0
0 0 0 0 0 0 0 0 0 0 0 0 0 0 0 0 0 0 0 0 0 0 0 0 0 0 0 0 0 0 0 0 0 0 0 0 0 0 0 0 0 0 0 0 0 0 0 0 0
0 0 0 0 0 0 0 0 0 0 0 0 0 0 0 0 0 0 0 0 0 0 0 0 0 0 0 0 0 0 0 0 0 0 0 0 0 0 0 0 0 0 0 0 0 0 0 0 0
0 0 0 0 0 0 0 0 0 0 0 0 0 0 0 0 0 0 0 0 0 0 0 0 0 0 0 0 0 0 0 0 0 0 0 0 0 0 0 0 0 0 0 0 0 0 0 0 0
0 0 0 0 0 0 0 0 0 0 0 0 0 0 0 0 0 0 0 0 0 0 0 0 0 0 0 0 0 0 0 0 0 0 0 0 0 0 0 0 0 0 0 0 0 0 0 0 0
0 0 0 0 0 0 0 0 0 0 0 0 0 0 0 0 0 0 0 0 0 0 0 0 0 0 0 0 0 0 0 0 0 0 0 0 0 0 0 0 0 0 0 0 0 0 0 0 0
Wind_Speed
6 3 3 5 7 7 2 2 1 2 2 1 1 3 3 2 2 2 2 5 5 5 8 9 11 11 11 11 10 9 9 9 9 9 10 10 10 10 10 10 10 10 9 9 9 9 10 11 11
2 1 5 6 7 3 3 3 2 2 2 1 1 2 2 1 2 2 1 5 4 6 8 9 11 11 12 11 10 10 9 9 9 9 9 8 8 9 9 9 8 8 7 7 8 8 9 9 10
1 4 5 6 5 5 3 3 2 3 2 2 2 1 1 1 2 1 1 5 4 5 7 9 12 12 12 12 11 10 10 9 9 9 8 8 8 8 8 8 7 7 6 6 6 7 8 8 8
3 5 6 6 2 3 3 2 1 2 3 3 1 2 2 1 2 2 1 5 5 4 5 7 12 12 12 12 12 11 10 10 10 9 9 8 8 8 8 7 6 5 4 4 5 6 7 7 7
5 6 6 4 1 2 2 2 1 0 2 2 1 2 5 2 1 2 3 4 4 4 4 5 10 11 11 12 12 11 10 10 9 9 9 8 8 9 8 7 5 4 3 3 4 5 6 6 6
6 6 5 1 2 3 2 2 0 1 2 2 1 2 3 3 3 3 3 3 2 4 4 4 8 9 10 11 10 10 9 9 9 8 8 8 9 10 9 7 5 3 2 2 3 4 5 5 5
5 5 4 2 1 2 3 3 2 1 2 3 1 2 4 4 3 3 4 3 2 1 1 2 4 6 8 10 10 9 9 8 8 7 7 7 8 9 9 7 6 4 1 1 3 4 4 5 5
5 6 3 1 1 1 3 2 1 1 2 4 1 2 3 5 5 4 6 6 5 3 2 2 3 4 5 6 9 10 9 8 8 7 6 6 8 9 9 7 6 4 2 1 3 3 3 5 6
4 6 2 3 4 1 1 2 2 1 2 3 2 2 4 6 6 6 6 7 7 7 5 4 4 5 5 5 6 8 9 9 8 6 6 5 3 4 5 7 6 5 3 2 3 2 4 7 7
5 4 4 3 3 2 1 0 2 3 4 3 3 4 9 9 10 10 9 9 9 10 9 6 5 5 6 5 4 4 4 4 5 4 4 3 3 3 4 7 6 5 4 2 2 3 7 6 4
3 4 3 2 2 0 1 1 0 1 2 1 3 5 9 12 13 11 9 8 7 8 8 8 7 6 6 5 4 3 2 2 3 4 4 3 3 2 2 2 3 3 4 3 3 5 3 3 2
1 2 3 2 1 0 1 1 1 3 1 4 6 6 7 11 12 11 10 10 9 9 10 9 8 6 5 5 4 3 2 2 2 3 3 3 3 3 3 2 3 3 3 4 3 2 2 2 2
1 3 2 3 3 3 3 3 2 2 4 8 11 13 11 10 9 8 7 8 9 10 12 11 9 6 3 3 3 2 2 2 2 2 3 4 3 4 3 3 3 3 3 4 4 3 3 1 1
1 2 5 5 3 2 3 3 2 1 6 10 11 11 9 10 10 10 11 12 12 12 12 11 10 7 2 1 1 1 1 1 2 2 3 4 3 4 4 4 3 3 3 4 4 5 4 2 1
1 3 6 4 2 1 2 2 3 4 7 10 9 8 9 9 10 11 10 10 10 11 10 11 10 9 6 4 4 3 3 2 2 2 1 0 1 3 3 3 3 3 3 3 2 3 2 2 2
2 3 4 5 1 0 3 4 0 5 8 8 7 7 8 8 9 9 9 9 9 9 10 11 10 11 11 9 8 7 7 8 7 6 6 7 5 2 2 1 1 1 2 2 2 2 2 2 2
2 2 4 6 1 1 2 5 3 4 7 6 5 6 6 8 10 10 10 9 9 9 9 10 11 11 11 11 11 12 11 11 10 10 10 11 11 9 6 4 4 3 2 1 1 1 0 1 2
7 6 5 6 2 2 2 6 5 5 6 6 5 5 6 8 9 8 9 9 9 9 9 10 11 11 8 8 10 11 13 12 11 12 13 15 13 13 10 7 8 6 4 3 3 3 2 2 2
6 7 6 6 2 2 5 8 6 4 6 6 5 4 5 5 5 7 8 9 9 10 12 13 13 12 8 6 5 7 8 9 10 11 15 15 14 14 12 9 9 8 6 5 4 3 3 3 2
4 4 5 5 2 4 5 7 2 3 3 3 5 4 4 4 6 8 8 9 10 10 10 12 12 12 11 6 5 5 5 7 8 9 13 15 15 14 12 12 9 8 7 8 6 4 2 2 2
6 7 7 6 2 1 2 6 3 3 3 5 4 4 3 3 3 4 6 7 8 10 10 9 10 11 11 8 6 6 5 5 7 10 10 13 14 13 13 12 10 10 9 7 7 5 4 2 2
7 8 7 5 2 4 1 5 6 4 3 3 3 3 3 2 2 3 4 6 7 7 7 8 10 11 11 9 11 13 11 9 6 5 6 9 12 13 13 12 11 10 9 9 8 6 4 3 3
6 3 5 3 4 2 2 4 8 2 5 6 6 5 4 3 2 2 3 4 5 5 6 7 9 12 10 11 11 12 11 7 5 5 9 9 9 12 12 11 11 10 8 9 9 8 7 4 3
7 7 6 5 4 4 7 7 9 6 6 6 8 7 7 5 4 3 3 3 4 5 6 6 10 11 9 10 11 12 12 9 9 9 8 7 6 8 11 10 9 9 8 9 8 7 7 6 5
5 6 2 2 1 8 2 5 11 3 2 7 13 11 8 7 5 4 4 4 4 5 5 6 8 9 7 9 10 9 9 9 9 7 7 6 5 6 8 8 7 7 7 7 7 7 7 7 6
7 9 8 7 6 5 3 9 8 0 2 3 8 9 8 7 6 5 5 4 4 5 5 5 7 7 6 7 7 6 7 5 5 5 5 5 3 3 5 6 6 6 6 7 6 5 5 6 5
7 5 5 7 2 3 7 7 6 2 1 3 7 8 8 8 7 7 6 5 5 5 4 5 6 6 5 6 6 6 5 5 5 4 4 3 3 3 4 4 5 5 5 5 5 4 5 5 5
6 9 6 6 5 6 7 6 6 7 7 6 9 11 11 9 8 7 7 6 5 5 4 4 5 5 4 4 4 4 4 4 4 3 4 4 3 3 4 5 5 5 5 5 5 4 5 5 5
7 5 5 5 5 7 6 9 6 7 10 14 15 13 11 10 9 8 7 7 6 5 5 4 4 4 3 3 3 3 3 2 3 3 3 3 3 4 5 5 6 6 6 6 6 6 6 7 7
6 9 10 8 7 6 4 9 2 3 8 11 12 10 9 9 9 8 8 7 6 6 6 5 5 4 4 3 2 2 1 1 1 2 3 3 4 4 4 5 5 6 6 6 6 8 8 8 9
Wind_Direction
346 28 67 56 54 50 57 292 270 303 278 253 172 140 135 150 155 259 296 153 162 152 164 177 174 170 165 160 156 153 148 141 134 127 122 118 113 106 99 92 84 76 67 61 56 51 47 42 39
329 39 55 59 80 76 288 279 270 268 310 13 71 110 91 291 246 270 324 184 170 159 164 172 176 172 168 165 164 163 160 153 146 139 133 127 121 115 107 98 89 79 69 61 54 49 46 42 38
54 52 78 72 95 157 206 238 240 301 352 33 31 58 140 278 306 295 301 174 155 160 169 173 175 177 173 171 171 171 169 164 159 154 149 144 137 128 118 107 97 85 72 61 52 44 41 38 36
70 44 53 70 99 205 226 280 261 327 8 31 48 13 320 312 309 321 24 140 147 166 172 176 179 182 180 178 179 179 178 175 172 168 164 160 152 139 130 121 110 96 79 63 54 44 36 31 30
57 70 59 53 310 282 271 314 292 13 354 356 53 3 313 344 360 48 88 127 154 165 174 182 187 189 187 185 186 187 187 186 184 181 178 174 164 151 143 136 125 110 89 69 63 53 39 27 25
54 63 83 139 297 323 344 339 18 25 347 357 66 354 318 1 19 47 90 118 154 168 176 186 195 197 194 192 192 192 195 195 194 193 190 186 175 164 157 152 143 130 103 71 70 61 43 29 27
93 89 133 156 304 344 352 342 73 8 349 343 338 5 329 11 9 49 74 80 82 133 174 206 200 203 202 197 196 196 199 201 202 203 201 195 181 171 164 157 154 150 140 92 84 69 42 29 29
110 98 98 134 176 272 330 3 77 351 302 321 14 43 351 345 356 49 54 45 34 23 348 281 235 212 207 205 204 203 203 205 208 209 210 205 190 178 166 156 157 161 160 135 108 84 44 37 30
81 77 159 202 184 209 346 33 334 294 321 331 25 53 355 339 11 32 24 14 9 4 354 331 281 238 219 210 207 208 209 210 209 211 218 212 190 172 164 164 164 160 148 143 133 109 69 56 30
77 125 215 214 197 202 323 351 321 13 349 344 1 21 8 18 30 32 21 3 355 346 341 338 306 265 238 221 205 204 204 211 206 194 197 182 165 168 167 172 168 153 132 128 145 109 80 63 31
102 177 233 256 237 231 295 277 253 8 314 326 325 352 14 27 31 29 19 4 346 332 335 336 323 287 251 230 209 194 187 198 207 199 185 167 158 152 150 146 153 138 122 97 78 80 80 70 47
113 232 220 256 96 320 247 266 282 210 216 65 61 55 40 35 29 18 6 354 343 341 340 333 325 305 264 240 222 198 182 186 194 196 183 162 158 159 159 163 161 150 139 134 121 121 115 82 49
211 273 275 265 279 247 238 229 245 266 87 82 72 60 48 40 25 9 0 356 351 350 344 337 329 317 280 235 223 210 196 192 196 189 186 178 172 175 172 175 172 168 157 157 152 153 157 146 11
249 285 302 293 282 250 226 247 184 136 106 76 65 57 47 39 25 16 10 4 357 350 344 340 345 344 340 142 166 169 174 200 216 215 208 194 183 178 177 178 179 183 182 176 166 166 167 173 184
60 342 319 296 273 268 163 284 216 153 104 75 62 54 48 38 28 21 5 357 349 346 345 354 0 9 33 61 76 74 69 62 29 6 358 284 182 177 174 176 186 192 174 159 142 145 145 164 186
72 28 307 296 304 249 156 261 335 117 102 84 65 50 46 35 25 15 5 358 353 352 358 6 17 26 42 53 60 60 54 51 39 31 27 26 25 51 113 149 192 154 139 150 153 146 177 203 209
25 244 246 290 273 149 179 244 286 65 95 97 77 57 47 35 23 12 3 358 355 357 3 16 23 32 45 58 64 62 57 52 44 38 33 30 33 36 46 41 33 55 70 74 92 72 80 266 263
214 208 231 250 265 147 210 260 294 19 87 105 90 68 52 41 20 5 2 1 359 3 16 26 32 30 36 54 63 63 57 51 48 43 36 36 35 36 41 42 36 36 39 34 31 33 29 14 348
169 178 219 245 249 208 237 258 288 14 81 103 99 80 61 43 14 11 9 5 11 21 28 30 35 28 34 44 49 55 54 47 48 45 40 40 38 39 42 40 38 34 37 33 31 35 26 20 11
162 187 234 274 251 209 250 263 292 33 70 121 124 103 79 53 21 15 13 14 19 24 28 36 37 36 39 47 58 71 76 58 54 48 44 39 39 38 40 39 38 33 36 36 33 35 25 21 22
202 202 212 228 328 8 298 286 234 95 83 81 91 100 93 86 51 20 18 18 21 29 25 38 41 44 43 48 69 74 64 57 44 38 40 36 38 39 40 38 38 34 35 31 23 23 27 4 3
224 214 197 196 192 274 261 277 275 169 152 151 144 135 128 104 71 45 34 30 27 23 22 38 48 50 44 49 68 75 74 69 47 41 44 42 41 39 37 37 37 36 34 28 20 19 14 9 354
192 126 149 162 175 253 254 235 271 168 215 203 188 182 177 166 141 90 59 49 37 29 36 45 58 56 50 57 67 78 78 77 66 53 49 43 39 39 36 36 36 34 32 26 21 19 20 16 3
130 86 68 55 88 247 218 202 264 221 211 180 185 189 188 182 167 133 92 74 58 46 49 55 69 63 56 65 69 77 81 78 69 55 47 39 33 32 30 32 33 31 28 25 18 17 21 17 7
131 112 65 341 288 247 207 215 249 218 181 184 184 186 189 187 178 168 141 109 89 75 68 69 78 72 63 71 72 75 80 77 72 65 54 45 35 27 20 24 25 25 20 19 16 19 15 11 5
178 156 168 201 222 264 226 231 251 207 298 206 171 170 179 188 189 184 169 150 130 112 99 93 91 87 80 80 79 77 80 82 78 72 68 58 45 32 17 20 21 19 17 16 12 14 5 359 351
145 191 156 121 113 266 254 266 283 144 105 132 150 168 191 198 195 189 180 171 159 143 131 123 113 104 95 93 92 83 81 81 80 74 68 61 42 27 20 18 16 10 10 9 4 359 348 340 334
148 144 121 150 197 246 266 245 238 213 204 184 186 195 203 201 197 193 189 185 178 166 152 140 128 123 120 111 103 100 89 83 80 68 51 39 23 16 8 8 4 359 357 356 351 338 327 324 317
140 155 157 155 167 180 254 259 226 212 187 192 201 202 200 198 198 195 194 191 184 176 171 163 155 147 146 139 126 112 98 82 65 49 28 12 3 360 358 352 348 345 343 341 335 325 318 313 307
180 177 157 172 212 202 220 264 306 234 190 190 198 201 201 201 198 194 192 188 188 190 190 189 187 187 188 181 166 149 120 74 39 13 358 354 347 345 340 336 333 330 328 322 317 311 310 302 301